www.pogodaiklimat.ru
ПОГОДА в Тарту
Время
(UTC), дата
19 7.12
20 7.12
21 7.12
22 7.12
23 7.12
00 8.12
01 8.12
02 8.12
03 8.12
04 8.12
05 8.12
06 8.12
07 8.12
08 8.12
09 8.12
10 8.12
11 8.12
12 8.12
13 8.12
14 8.12
15 8.12
16 8.12
17 8.12
18 8.12
19 8.12
20 8.12
21 8.12
22 8.12
23 8.12
00 9.12
01 9.12
02 9.12
03 9.12
04 9.12
05 9.12
06 9.12
07 9.12
08 9.12
09 9.12
10 9.12
11 9.12
12 9.12
13 9.12
14 9.12
15 9.12
16 9.12
17 9.12
18 9.12
19 9.12
20 9.12
21 9.12
22 9.12
23 9.12
00 10.12
01 10.12
02 10.12
03 10.12
04 10.12
05 10.12
06 10.12
07 10.12
08 10.12
09 10.12
10 10.12
11 10.12
12 10.12
13 10.12
14 10.12
15 10.12
16 10.12
17 10.12
18 10.12
19 10.12
20 10.12
21 10.12
22 10.12
23 10.12
00 11.12
01 11.12
02 11.12
03 11.12
04 11.12
05 11.12
06 11.12
07 11.12
08 11.12
09 11.12
10 11.12
11 11.12
12 11.12
13 11.12
14 11.12
15 11.12
16 11.12
17 11.12
18 11.12
19 11.12
20 11.12
21 11.12
22 11.12
23 11.12
00 12.12
01 12.12
02 12.12
03 12.12
04 12.12
05 12.12
06 12.12
07 12.12
08 12.12
09 12.12
10 12.12
11 12.12
12 12.12
13 12.12
14 12.12
15 12.12
16 12.12
17 12.12
18 12.12
19 12.12
20 12.12
21 12.12
22 12.12
23 12.12
00 13.12
01 13.12
02 13.12
03 13.12
04 13.12
05 13.12
06 13.12
07 13.12
08 13.12
09 13.12
10 13.12
11 13.12
12 13.12
13 13.12
14 13.12
15 13.12
16 13.12
17 13.12
18 13.12
19 13.12
20 13.12
21 13.12
22 13.12
23 13.12
00 14.12
01 14.12
02 14.12
03 14.12
04 14.12
05 14.12
06 14.12
07 14.12
08 14.12
09 14.12
10 14.12
11 14.12
12 14.12
13 14.12
14 14.12
15 14.12
16 14.12
17 14.12
Ветер
(напр.,м/с)
Видим. Явления Облачность Т
(С)
Тd
(С)
f
(%)
Тe
(С)
Тes
(С)
Комфортность P
(гПа)
Po
(гПа)
Тmin
(С)
Tmax
(С)
R
(мм)
R24
(мм)
S
(см)
Ю 4 16 км н/о +1.5 +0.9 96 -4 -4 по сезону 985.7 977.1 1
Ю 5 22 км н/о +1.8 +1.3 96 -4 -4 по сезону 984.8 976.3 1
Ю 5 19 км дождь 10/10 100 м
[Sc Cs]
+2.3 +1.3 93 -3 -3 по сезону 984.3 975.8 3
ЮЗ 3 7000 м н/о +2.9 +2.6 98 -1 -1 тепло 983.9 975.4 0.7
З 7 35 км н/о +3.5 +1.8 89 -3 -3 тепло 985.1 976.6 0.1
З 5 35 км в посл. час морось {дождь} 10/9 300 м
[St As trans Cs]
+3.1 +1.3 88 -2 -2 по сезону 986.4 977.8 0.8
З 5 35 км н/о +3.0 +2.0 93 -2 -2 тепло 987.5 978.9
З 4 35 км н/о +2.8 +1.6 92 -2 -2 тепло 988.8 980.3
З 5 35 км в посл. час ливневой дождь 9/9 200 м
[St As trans]
+2.7 +1.3 90 -3 -3 по сезону 989.8 981.2
З 5 35 км н/о +2.5 +0.7 88 -3 -3 тепло 990.9 982.4
З 5 35 км н/о +2.4 +0.5 87 -3 -3 тепло 992.1 983.5
З 5 35 км {ливн. осадки} 5/5 300 м
[St As trans Cs]
+2.3 +1.3 93 -3 -3 по сезону 993.2 984.6 +1.3 +4.2
З 4 35 км н/о +1.8 +0.1 88 -3 -3 тепло 994.0 985.4
ЮЗ 3 35 км н/о +2.0 +0.2 88 -2 -2 тепло 994.6 985.9
ЮЗ 2 35 км 6/1 600 м
[St Ac trans Ci ing]
+2.5 +1.6 94 -2 -1 по сезону 994.8 986.2
ЮЗ 3 35 км н/о +2.6 +0.8 88 -2 -2 тепло 994.6 986.0
ЮЗ 3 35 км н/о +3.2 +1.2 87 -1 -1 тепло 994.5 985.9
ЮЗ 4 35 км 10/9 300 м
[St As trans Cs]
+3.3 +1.6 89 -1 -1 по сезону 993.9 985.3
Ю 4 35 км н/о +2.9 +0.4 84 -2 -2 тепло 993.4 984.8
Ю 3 35 км н/о +2.8 +0.5 85 -1 -1 тепло 992.7 984.2
Ю 4 35 км морось 10/10 300 м
[Frnb As trans Ci sp]
+2.8 +1.6 92 -3 -3 по сезону 991.5 982.9
Ю 5 25 км н/о +2.0 +1.0 93 -4 -4 по сезону 990.0 981.5 0.6
Ю 5 35 км н/о +2.6 +1.6 93 -3 -3 тепло 988.9 980.4 0.8
Ю 6 28 км слаб. дождь {морось} 10/10 300 м
[Sc As trans Ci fib]
+2.8 +1.6 92 -3 -3 по сезону 987.5 978.9 +1.6 +3.4 2
Ю 6 17 км н/о +2.8 +2.1 95 -3 -3 тепло 986.3 977.8 0.3
Ю 5 8000 м н/о +4.0 +3.3 95 -1 -1 тепло 985.5 977.0 0.1
Ю 5 8000 м дождь 10/10 100 м
[Sc Cs]
+4.9 +1.9 81 984.9 976.4 0.6
Ю 5 7000 м н/о +5.5 +4.6 94 +1 +1 тепло 984.3 975.9 0.2
ЮЗ 4 35 км н/о +6.1 +4.8 91 +2 +2 тепло 984.0 975.6 0.1
ЮЗ 5 35 км {дождь, морось} 10/10 300 м
[Frnb As trans]
+6.5 +1.9 72 +2 +2 тепло 983.9 975.5 0.3
ЮЗ 4 35 км н/о +6.6 +5.4 92 +3 +3 тепло 984.5 976.1 0.1
ЮЗ 3 35 км н/о +6.7 +5.3 91 +4 +4 тепло 984.6 976.2
ЮЗ 4 35 км в посл. час дождь 10/9 300 м
[St As trans Ci ing]
+6.8 +1.9 71 +3 +3 тепло 985.0 976.6 0.3
ЮЗ 4 35 км н/о +6.6 +5.0 90 +3 +3 тепло 985.5 977.1 0.1
ЮЗ 4 20 км н/о +6.1 +4.4 89 +2 +2 тепло 986.1 977.6 0.2
ЮЗ 3 26 км в посл. час ливневой дождь 9/9 300 м
[Cb cap As trans Cs]
+5.9 +2.6 79 +3 +3 тепло 986.6 978.2 +2.6 +6.9 0.1
ЮЗ 3 35 км н/о +5.4 +4.1 91 +2 +2 тепло 987.5 979.0 5
ЮЗ 4 28 км н/о +5.5 +4.1 91 +1 +1 тепло 988.3 979.8 0.3
ЮЗ 4 35 км в посл. час ливневой дождь 9/9 300 м
[Cb cap As trans Cc]
+5.7 +3.5 86 +2 +2 тепло 989.0 980.6 5
ЮЗ 4 19 км н/о +5.5 +4.0 90 +1 +1 тепло 989.3 980.9 0.2
ЮЗ 4 22 км н/о +5.9 +3.7 86 +2 +2 тепло 989.9 981.4 0.1
ЮЗ 4 30 км {ливн. осадки} 9/9 300 м
[Cb cap As trans Cc]
+5.8 +3.5 85 +2 +2 тепло 990.6 982.1 0.3
ЮЗ 4 35 км н/о +5.8 +3.1 83 +2 +2 тепло 991.4 982.9 0.1
ЮЗ 4 35 км н/о +5.3 +3.0 85 +1 +1 тепло 991.9 983.4
Ю 4 35 км {ливн. осадки} 4/4 300 м
[Cb cap As trans Cs]
+5.4 +3.5 88 +1 +1 тепло 992.7 984.1 0.1
ЮЗ 4 35 км н/о +4.9 +3.1 88 +1 +1 тепло 993.4 984.9 0.1
ЮЗ 4 35 км н/о +5.2 +2.9 85 +1 +1 тепло 994.3 985.8
ЮЗ 3 35 км {ливн. осадки} 9/9 300 м
[Cb cap As trans Ci]
+5.2 +3.5 89 +2 +2 тепло 995.2 986.6 +3.5 +6.2 0.1
ЮЗ 3 30 км н/о +5.0 +3.1 88 +1 +1 тепло 995.8 987.2
ЮЗ 3 35 км н/о +4.7 +2.7 87 +1 +1 тепло 996.7 988.1
ЮЗ 3 35 км 9/9 300 м
[St As trans Cs]
+4.9 +4.6 98 +1 +1 тепло 997.3 988.7
ЮЗ 3 35 км н/о +4.7 +2.1 83 +1 +1 тепло 998.0 989.5
ЮЗ 3 35 км н/о +4.9 +2.1 82 +1 +1 тепло 998.6 990.0
Ю 3 35 км 8/8 300 м
[St As trans Cs]
+4.8 +4.5 98 +1 +1 тепло 998.9 990.3
ЮЗ 4 35 км н/о +4.6 +2.0 83 0 0 тепло 999.4 990.8
ЮЗ 4 35 км н/о +4.3 +1.9 84 0 0 тепло 1000.0 991.4
Ю 4 35 км 9/9 300 м
[St As trans Ci ing]
+4.1 +4.0 99 1000.3 991.7
Ю 4 35 км н/о +4.0 +1.8 86 -1 -1 тепло 1000.4 991.8
Ю 4 35 км н/о +4.0 +1.4 83 -0 -0 тепло 1000.8 992.2
Ю 3 35 км 9/9 1000 м
[St Ac lent Ci]
+4.1 +3.9 99 1001.5 992.9 +3.9 +5.3
Ю 4 35 км н/о +4.1 +2.0 86 -0 -0 тепло 1002.2 993.6
ЮЗ 2 13 км н/о +3.9 +2.7 92 +1 +1 тепло 1003.1 994.4 0.1
ЮЗ 2 22 км слаб. ливневой дождь 10/10 200 м
[Sc Cc]
+3.9 +3.8 99 +1 +1 тепло 1003.8 995.2 0.4
ЮЗ 2 35 км н/о +4.0 +2.9 93 +1 +1 тепло 1004.6 995.9 0.1
С 3 35 км н/о +1.4 +0.6 94 -3 -3 тепло 1006.3 997.5 0.3
С 2 35 км {ливн. осадки} 10/10 200 м
[Cb cap Cs]
+1.4 +1.3 99 -2 -2 по сезону 1007.4 998.6 0.4
СЗ 2 1600 м н/о +0.1 -0.1 99 -4 -4 по сезону 1009.1 1000.3 0.6
СЗ 2 35 км н/о +0.2 -0.3 96 -4 -4 тепло 1010.3 1001.5
СЗ 2 35 км в посл. час ливневой снег 9/9 100 м
[St Cs]
-0.1 -0.1 100 -4 -4 по сезону 1011.8 1002.9 0.6
СЗ 3 35 км н/о -0.6 -1.8 92 -6 -6 по сезону 1013.3 1004.4
С 3 35 км н/о -1.3 -2.9 89 -6 -6 тепло 1014.8 1005.9
СЗ 2 35 км {ливн. осадки} 9/9 600 м
[St As op]
-1.5 -1.5 100 -5 -5 по сезону 1015.8 1006.9 -1.5 +4.2
С 1 35 км н/о -1.4 -3.6 85 -4 -4 тепло 1016.8 1007.9
С 2 35 км н/о -1.7 -5.0 78 -5 -5 тепло 1017.6 1008.6
С 1 35 км 10/9 300 м
[St As trans Cc]
-1.9 -1.9 100 -4 -4 по сезону 1018.3 1009.4
СЗ 1 35 км н/о -1.7 -4.8 79 -4 -4 тепло 1019.0 1010.0
Ю 1 35 км н/о -2.0 -5.1 79 -4 -4 тепло 1019.6 1010.6
ЮЗ 2 35 км 9/9 300 м
[St As op]
-2.1 -2.1 100 -6 -6 по сезону 1019.7 1010.7
Ю 1 35 км н/о -3.3 -5.7 83 -6 -6 по сезону 1019.7 1010.7
Ю 2 35 км н/о -3.5 -5.6 85 -8 -8 тепло 1020.1 1011.1
Ю 2 35 км 1/1 300 м
[As trans Ci sp]
-3.7 -3.9 99 -8 -8 по сезону 1020.1 1011.1 -3.9 -0.1
Ю 2 35 км н/о -4.2 -5.7 89 -8 -8 по сезону 1019.7 1010.6
Ю 2 35 км н/о -3.4 -5.3 87 -8 -8 тепло 1020.0 1011.0
Ю 2 35 км 8/8 300 м
[Frnb As trans]
-3.9 -4.4 96 -8 -8 по сезону 1019.7 1010.6 -4.4 -1.4
Ю 2 35 км н/о -4.3 -5.8 89 -9 -9 по сезону 1019.7 1010.7
н/о
Ю 3 35 км 9/0
[]
-2.9 -4.5 89 -8 -8 по сезону 1019.0 1010.0
Ю 4 35 км н/о -2.4 -4.9 83 -8 -8 по сезону 1018.6 1009.6
Ю 3 35 км н/о -2.0 -4.5 83 -7 -7 тепло 1018.0 1009.1
Ю 4 35 км 10/4
[Ac As Ci sp]
-1.9 -4.5 82 -8 -8 по сезону 1017.4 1008.4
Ю 4 35 км н/о -1.7 -4.3 82 -7 -7 по сезону 1017.1 1008.2
Ю 4 35 км н/о -2.0 -4.4 84 -8 -8 тепло 1016.8 1007.9
Ю 4 35 км 10/3
[Ac cuf Cs]
-2.1 -4.5 84 -8 -8 по сезону 1016.5 1007.6
Ю 4 35 км н/о -2.0 -4.7 82 -8 -8 по сезону 1016.3 1007.4
Ю 4 35 км н/о -2.3 -4.7 84 -8 -8 тепло 1016.4 1007.5
Ю 4 35 км 9/5
[Ac cuf Cc]
-2.8 -4.5 88 -9 -9 прохладно 1016.4 1007.5 -4.5 -1.7
Ю 4 35 км н/о -3.5 -5.8 84 -10 -10 по сезону 1016.5 1007.5
Ю 4 35 км н/о -3.8 -5.7 87 -10 -10 тепло 1016.4 1007.4
Ю 4 35 км 6/0
[]
-3.5 -3.8 98 -10 -10 прохладно 1016.3 1007.3
Ю 4 35 км н/о -3.3 -5.0 88 -9 -9 по сезону 1016.1 1007.2
Ю 4 35 км н/о -2.8 -5.0 85 -9 -9 тепло 1015.7 1006.8
Ю 4 35 км 1/0
[]
-2.6 -3.8 91 -9 -9 по сезону 1015.4 1006.4
Ю 4 35 км н/о -2.9 -5.2 84 -9 -9 по сезону 1015.2 1006.2
Ю 4 35 км н/о -2.5 -4.4 87 -9 -9 тепло 1014.7 1005.8
Ю 4 35 км 8/0
[]
-2.4 -3.8 90 -8 -8 по сезону 1014.6 1005.7
Ю 5 35 км н/о -1.6 -3.6 86 -8 -8 по сезону 1014.2 1005.3
Ю 4 35 км н/о -0.8 -2.8 86 -6 -6 тепло 1014.0 1005.1
Ю 4 35 км 8/8 600 м
[St As op Ci]
-0.9 -3.8 81 -7 -7 по сезону 1013.6 1004.7 -3.8 -0.6
Ю 4 35 км н/о -0.4 -3.0 83 -6 -6 по сезону 1013.5 1004.6
н/о
ЮВ 3 35 км 1/1
[]
+0.2 -3.6 76 -4 -4 по сезону 1012.7 1003.9
ЮВ 3 35 км н/о +0.4 -2.9 78 -4 -4 тепло 1011.5 1002.6
ЮВ 3 35 км н/о +0.5 -2.8 79 -4 -4 тепло 1010.8 1002.0
ЮВ 3 35 км 10/9 1000 м
[St Ac trans Cs]
+0.5 -3.0 77 -4 -4 по сезону 1009.9 1001.1
ЮВ 4 35 км н/о +0.5 -2.1 83 -5 -5 по сезону 1009.4 1000.6
Ю 3 8000 м н/о +0.4 -1.4 88 -4 -4 тепло 1008.9 1000.1
Ю 4 16 км слаб. ливневой снег 10/10 300 м
[Cb cap As trans Ci]
+0.5 -2.5 80 -5 -5 по сезону 1008.2 999.4
Ю 4 28 км н/о +0.6 -1.5 86 -5 -5 тепло 1007.5 998.7
Ю 4 35 км н/о +0.8 -1.5 85 -4 -4 тепло 1007.0 998.2
Ю 3 35 км слаб. снег 10/9 300 м
[St As trans Cs]
+0.7 -0.9 89 -4 -4 по сезону 1006.6 997.8 -0.9 +0.9
Ю 4 35 км н/о +0.8 -1.4 85 -4 -4 тепло 1006.1 997.4
Ю 4 35 км н/о +0.6 -2.1 82 -5 -5 тепло 1006.0 997.3
Ю 3 35 км {снег} 10/9 600 м
[St As op]
+1.0 +0.1 94 -3 -3 по сезону 1005.7 997.0
Ю 4 30 км н/о +1.2 -1.5 82 -4 -4 тепло 1005.7 996.9
Ю 4 35 км н/о +1.3 -2.6 75 -4 -4 тепло 1005.5 996.7 +0.3 +1.3
Ю 4 35 км {снег} 10/9 1000 м
[St Ac trans Cs]
+1.2 +0.3 94 -4 -4 по сезону 1005.4 996.7
Ю 4 26 км н/о +0.7 -3.1 76 -4 -4 тепло 1005.7 996.9
Ю 3 25 км н/о +0.8 -2.9 76 -4 -4 тепло 1005.8 997.0
Ю 2 21 км 6/6 1000 м
[St Ac lent Cc]
0.0 -0.1 99 -4 -4 по сезону 1005.8 997.0
Ю 2 17 км н/о +0.6 -1.5 86 -3 -3 тепло 1005.6 996.8
Ю 3 16 км н/о +1.8 -0.3 86 -3 -3 тепло 1005.3 996.6
ЮВ 2 2000 м морось 10/10 100 м
[Frnb Cs]
+1.4 -0.2 89 -2 -2 по сезону 1005.4 996.7 -0.2 +2.1
ЮВ 2 7000 м н/о +1.7 +1.3 97 -2 -2 тепло 1005.5 996.8 0.3
н/о
Ю 4 16 км {дождь, морось} 10/10 200 м
[Frnb Cc]
+2.4 -0.2 83 -3 -3 по сезону 1005.6 996.9 0.4
Ю 3 16 км н/о +2.3 +1.1 92 -2 -2 тепло 1005.2 996.5
Ю 4 17 км н/о +1.9 +0.2 88 -3 -3 тепло 1004.9 996.2
ЮВ 3 20 км {дождь, морось} 10/9 300 м
[St As trans Ci fib]
+1.6 -0.2 88 -3 -3 по сезону 1004.5 995.8
ЮВ 3 25 км н/о +1.4 -0.7 86 -3 -3 тепло 1004.5 995.8
В 3 19 км н/о +1.1 -0.4 90 -3 -3 тепло 1004.2 995.5
ЮВ 3 23 км в посл. час дождь 10/9 200 м
[St As trans]
+1.0 -0.2 92 -4 -4 по сезону 1004.1 995.3
В 4 26 км н/о +0.9 -0.3 92 -4 -4 тепло 1003.6 994.9
В 4 20 км н/о +0.7 -0.2 94 -5 -5 тепло 1003.3 994.5
В 3 11 км слаб. морось {дождь} 10/9 200 м
[St Cs]
+0.5 +0.4 99 -4 -4 по сезону 1002.8 994.0 +0.4 +2.5
В 4 14 км {дождь} н/о +0.9 +0.1 94 -5 -5 тепло 1002.4 993.7 +0.4 +2.5
ЮВ 3 16 км {дождь} н/о +1.1 0.0 92 -3 -3 тепло 1002.3 993.5 +0.4 +2.5
ЮВ 3 21 км {морось} 10/10 300 м
[Frnb As trans Ci sp]
+1.5 +0.4 92 -3 -3 по сезону 1002.2 993.5
ЮВ 4 28 км н/о +1.9 -0.4 85 -3 -3 тепло 1001.9 993.2
ЮВ 4 30 км н/о +1.4 -0.6 87 -4 -4 тепло 1001.4 992.7
ЮВ 3 35 км в посл. час дождь {морось} 10/9 600 м
[St As op Cs]
+1.6 +0.4 92 -3 -3 по сезону 1001.4 992.7
ЮВ 4 35 км н/о +1.8 -1.6 78 -3 -3 тепло 1001.3 992.6
ЮВ 4 35 км н/о +1.6 -1.6 79 -3 -3 тепло 1001.0 992.3
ЮВ 4
{8}
35 км 10/9 500 м
[Sc]
+1.6 +0.4 92 -3 -3 по сезону 1000.9 992.2 +0.4 +2.0
ЮВ 5 35 км н/о +1.6 -1.1 82 -4 -4 тепло 1000.7 992.0
Ю 4 35 км н/о +1.7 -1.0 82 -3 -3 тепло 1000.8 992.1
ЮВ 4 35 км 10/9 300 м
[St As trans Ci sp]
+1.5 +0.5 93 -4 -4 по сезону 1000.6 991.9 +0.5 +2.0
ЮВ 5 35 км н/о +1.4 -0.8 85 -4 -4 тепло 1000.6 991.9
н/о
ЮВ 5 35 км слаб. ливневой дождь 10/10 300 м
[Cb cap As trans Cs]
+1.5 +1.1 97 -4 -4 по сезону 1000.4 991.7
ЮВ 4
{10}
35 км в посл. час дождь {ливн. осадки} 10/10 450 м
[]
+1.5 -1.4 81 -4 -4 тепло 1000.4 991.7 +1.1 +1.9
Ю 5 30 км н/о +1.7 -1.0 82 -4 -4 тепло 1000.5 991.8
ЮВ 5 28 км {ливн. осадки} 10/9 300 м
[St As trans Ci ing]
+1.7 +1.4 98 -4 -4 по сезону 1000.2 991.6
ЮВ 6 24 км н/о +1.7 -0.6 85 -4 -4 тепло 1000.1 991.4
ЮВ 5 24 км н/о +1.8 -0.6 84 -4 -4 тепло 1000.2 991.6
Ю 5 26 км 10/10 300 м
[Frnb As trans Ci sp]
+1.7 +1.4 98 -4 -4 по сезону 1000.2 991.5
ЮВ 6 25 км н/о +1.8 -0.4 85 -4 -4 тепло 999.8 991.1
Ю 5 24 км н/о +1.9 -0.5 84 -4 -4 тепло 999.8 991.1
Местоположение метеостанции Тарту (Эстония): широта 58.30 долгота 26.73 высота над уровнем моря 68 м.
В архиве по умолчанию представлена погода в Тарту за последнюю неделю. Архивные данные за месяц целиком и за предыдущие месяцы, начиная с января 2011 года, Вы можете получить, выбрав интересующий диапазон дат из раскрывающегося списка и нажав кнопку "Найти!".
*Определитесь, кто Вы:
Внимание! Время в таблицах - всемирное. Для получения местного времени необходимо прибавить поправку, которая равна 2 ч.
Смотрите также архив погоды в соседних городах и на ближайших метеорологических станциях:
Партнеры нашего сайта:      
Пояснения к столбцам:
  • Ветер - указаны скорость ветра в м/с - средняя за 10 мин, порывы в срок и между сроками (в фигурных скобках) и направление, откуда дует ветер: С - северный,
  • СВ - северо-восточный, В - восточный, ЮВ - юго-восточный, Ю - южный, ЮЗ - юго-западный, З - западный, СЗ - северо-западный.
  • Видимость - горизонтальная дальность видимости в метрах или километрах. При видимости от 1 до 10 км при отсутствии осадков обычно наблюдается дымка, при ухудшении видимости до 1 км и менее - туман. В сухую погоду видимость может ухудшаться дымом, пылью или мглою.
  • Явления - указаны атмосферные явления, наблюдавшиеся в срок или в последний час перед сроком; фигурными скобками обозначены явления, наблюдавшиеся между сроками (за 1-3 часа до срока); квадратными скобками обозначены град или гололедные отложения с указанием их диаметра в мм.
  • Облачность - указаны через наклонную черту общая и нижняя облачность в баллах и высота нижней границы облаков в метрах; квадратными скобками обозначены формы облаков: Ci - перистые, Cs - перисто-слоистые, Cc - перисто-кучевые, Ac - высококучевые, As - высокослоистые, Sc - слоисто-кучевые, Ns - слоисто-дождевые, Cu - кучевые, Cb - кучево-дождевые. Подробнее классификацию облаков см. в Атласе облаков (PDF).
  • T - Температура воздуха - температура, измеренная на высоте 2 м над землей.
  • Td - Температура точки росы - температура, при понижении до которой содержащийся в воздухе водяной пар достигнет насыщения.
  • f - Относительная влажность воздуха - влажноcть воздуха, измеренная на высоте 2 м над землей.
  • Te - Эффективная температура - температура, которую ощущает одетый по сезону человек в тени. Характеристика душности погоды. При расчете учитывается влияние влажности воздуха и скорости ветра на теплоощущения человека.
  • Tes - Эффективная температура на солнце - температура, которую ощущает человек, с поправкой на солнечный нагрев. Характеристика знойности погоды. Зависит от высоты солнца над горизонтом, облачности и скорости ветра. Ночью, в пасмурную погоду, а также при ветре 12 м/с и более поправка равна нулю.
  • P - Атмосферное давление - приведенное к уровню моря атмосферное давление.
  • Po - Атмосферное давление - измеренное на уровне метеостанции атмосферное давление.
  • Tmin - Минимальная температура - минимум температуры воздуха на высоте 2 м над землей.
  • Tmax - Максимальная температура - максимум температуры воздуха на высоте 2 м над землей.
  • R - Количество осадков - Количество выпавших осадков за период времени, мм. При наведении курсора мыши на число - период времени, за который выпало указанное количество осадков.
  • R24 - Количество осадков - Количество выпавших осадков за 24 часа, мм.
  • S - Снежный покров - Высота снежного покрова, см. При наведении курсора мыши на число - состояние снежного покрова и степень покрытия местности в баллах.